[[{"header":{"parameterUnit":"m.s-1","parameterCategory":1,"la1":30.2991,"la2":30.254,"lo1":-89.0895,"lo2":-89.0444,"dy":0.0017,"dx":0.0017,"nx":28,"ny":28,"refTime":"2024-03-31T09:00:00:Z","depth":0,"parameterNumber":2,"parameterNumberName":"U-component_of_WINDS"},"data":[0,0,0,0,0,0,0,0,0,0,0,0,0,0,0,0,0,0,0,0,0,0,0,0,0,0,0,0,0,0,0,0,0,0,0,0,0,0,0,0,0,0,0,0,0,0,0,0,0,0,0,0,0,0,0,0,0,0,-2.2008,-2.2009,0,-2.2123,-2.2125,-2.2126,-2.2148,-2.2147,-2.2146,-2.2145,-2.2267,-2.2271,-2.2275,0,0,0,0,0,0,0,0,0,0,0,0,0,-2.181,-2.1814,-2.2008,-2.2009,-2.2011,-2.2123,-2.2125,-2.2126,-2.2148,-2.2147,-2.2146,-2.2145,-2.2266,-2.2271,-2.2276,0,0,0,0,0,0,0,0,0,0,0,0,0,-2.1908,-2.1815,-2.2007,-2.2035,-2.2038,-2.2123,-2.2125,-2.2127,-2.2148,-2.2147,-2.2146,-2.2144,-2.2264,-2.227,-2.2276,-2.2343,0,0,-2.2295,-2.2298,0,0,0,0,0,0,0,0,-2.1902,-2.1915,-2.2029,-2.2033,-2.2037,-2.212,-2.21,-2.2199,-2.2149,-2.2107,-2.2145,-2.2144,-2.222,-2.2229,-2.2254,-2.2348,-2.2354,-2.2296,-2.23,-2.2302,-2.2304,0,0,0,0,0,0,0,-2.1895,-2.191,-2.2054,-2.2031,-2.2036,-2.2043,-2.2055,-2.2119,-2.217,-2.211,-2.2112,-2.2125,-2.2221,-2.2248,-2.2257,-2.2355,-2.2296,-2.2301,-2.2305,-2.2307,-2.2511,-2.2512,0,0,0,0,0,0,-2.1883,-2.1904,-2.205,-2.2057,-2.1965,-2.2048,-2.2061,-2.2095,-2.2169,-2.2179,-2.2126,-2.2126,-2.2238,-2.225,-2.2262,-2.2344,-2.2302,-2.2308,-2.2312,-2.2509,-2.2511,-2.2513,0,0,0,0,0,0,-2.1879,-2.1896,-2.2045,-2.1981,-2.2001,-2.2052,-2.209,-2.2098,-2.2124,-2.2181,-2.2191,-2.2144,-2.2238,-2.2253,-2.2322,-2.2348,-2.2311,-2.2316,-2.2507,-2.2509,-2.2512,-2.2509,0,0,0,0,0,0,-2.1873,-2.1894,-2.1919,-2.1982,-2.2004,-2.2102,-2.2091,-2.2101,-2.2135,-2.2135,-2.22,-2.221,-2.2238,-2.2313,-2.2328,-2.2356,-2.2321,-2.2505,-2.2508,-2.2511,-2.2507,-2.2511,-2.2515,0,0,0,0,0,-2.1866,-2.1914,-2.192,-2.1937,-2.2036,-2.2104,-2.2117,-2.2147,-2.2137,-2.2162,-2.2199,-2.2208,-2.2343,-2.232,-2.2337,-2.2368,-2.2503,-2.2507,-2.2511,-2.2505,-2.251,-2.2514,0,0,0,0,0,0,-2.1854,-2.1923,-2.193,-2.2,-2.2046,-2.2107,-2.2141,-2.2151,-2.2202,-2.2201,-2.2237,-2.2252,-2.2319,-2.2351,-2.2323,-2.2436,-2.2423,-2.243,-2.2412,-2.2418,-2.2422,-2.2412,-2.2326,0,0,0,0,0,-2.1859,-2.1908,-2.1966,-2.2022,-2.2044,-2.2088,-2.2119,-2.2139,-2.2188,-2.2208,-2.225,-2.2299,-2.2353,-2.2387,-2.244,-2.2512,-2.2527,-2.2542,-2.2546,-2.2549,-2.2554,-2.2595,-2.2603,-2.2525,-2.2525,-2.2525,0,0,-2.1871,-2.1915,-2.1943,-2.202,-2.2058,-2.2109,-2.2105,-2.2158,-2.2196,-2.2217,-2.2284,-2.2317,-2.2374,-2.2445,-2.2478,-2.2473,-2.2579,-2.2553,-2.2555,-2.256,-2.26,-2.2607,-2.2614,-2.2528,-2.2527,-2.2527,0,0,-2.1918,-2.1956,-2.2006,-2.2044,-2.2101,-2.2131,-2.2143,-2.2203,-2.2225,-2.2293,-2.231,-2.2357,-2.2449,-2.2489,-2.2521,-2.2584,-2.2594,-2.2601,-2.262,-2.266,-2.2666,-2.2672,-2.2694,-2.2702,-2.2607,-2.2607,-2.2607,0,-2.1926,-2.2001,-2.2031,-2.2084,-2.2118,-2.2138,-2.219,-2.2226,-2.2298,-2.2322,-2.2315,-2.243,-2.2471,-2.2551,-2.2567,-2.2592,-2.2608,-2.2593,-2.2663,-2.2668,-2.2674,-2.2696,-2.2704,-2.2607,-2.2607,-2.2607,-2.2607,0,-2.2007,-2.2059,-2.2094,-2.2161,-2.2199,-2.2251,-2.2291,-2.2326,-2.2343,-2.2373,-2.2443,-2.2492,-2.2555,-2.2576,-2.2593,-2.266,-2.2655,-2.2655,-2.2642,-2.2681,-2.2702,-2.2711,-2.2607,-2.2607,-2.2607,-2.2607,0,0,-2.2049,-2.2132,-2.2145,-2.2175,-2.224,-2.2282,-2.2336,-2.2396,-2.2426,-2.2476,-2.2522,-2.26,-2.26,-2.2637,-2.266,-2.2694,-2.2741,-2.2691,-2.2692,-2.2698,-2.2818,-2.2816,-2.2825,-2.2749,-2.2751,-2.2752,-2.2813,0,-2.2103,-2.2197,-2.2227,-2.2307,-2.2356,-2.2376,-2.2423,-2.2469,-2.25,-2.2547,-2.2581,-2.2635,-2.2632,-2.2655,-2.269,-2.2728,-2.2766,-2.2724,-2.2793,-2.2795,-2.2777,-2.2837,-2.2835,-2.289,-2.2821,-2.2823,-2.2824,0,-2.2178,-2.2227,-2.2311,-2.237,-2.2392,-2.2434,-2.2492,-2.2536,-2.2589,-2.2609,-2.265,-2.267,-2.2729,-2.2713,-2.2795,-2.2766,-2.2797,-2.282,-2.2823,-2.283,-2.2811,-2.2844,-2.2909,-2.2916,-2.2837,-2.2836,-2.2835,0,-2.2199,-2.2287,-2.2348,-2.2375,-2.2445,-2.2474,-2.2505,-2.2556,-2.2591,-2.2643,-2.2666,-2.2724,-2.2756,-2.2801,-2.2836,-2.2822,-2.2915,-2.2903,-2.2934,-2.2933,-2.2952,-2.295,-2.3021,-2.2973,-2.2973,-2.2972,-2.2972,0,-2.2256,-2.2306,-2.2359,-2.2396,-2.2454,-2.2489,-2.2546,-2.2578,-2.2624,-2.267,-2.2692,-2.2735,-2.2779,-2.2828,-2.2857,-2.292,-2.2935,-2.2953,-2.296,-2.2951,-2.2948,-2.297,-2.2967,-2.2975,-2.2974,-2.2974,-2.2973,0,-2.2289,-2.2325,-2.2394,-2.2455,-2.2472,-2.2512,-2.2565,-2.2603,-2.2635,-2.2692,-2.2708,-2.2758,-2.2817,-2.2857,-2.2933,-2.2952,-2.3021,-2.3027,-2.3002,-2.3005,-2.3034,-2.303,-2.3121,-2.3134,-2.3078,-2.3078,-2.3078,0,-2.2322,-2.2361,-2.2426,-2.2457,-2.2488,-2.2539,-2.2574,-2.261,-2.2646,-2.271,-2.2741,-2.2801,-2.2851,-2.2944,-2.2989,-2.3047,-2.3055,-2.3083,-2.3064,-2.3053,-2.3055,-2.3052,-2.3056,-2.3085,-2.3086,-2.3086,-2.3086,0,-2.2377,-2.2393,-2.2442,-2.2498,-2.2539,-2.2585,-2.2631,-2.2656,-2.2701,-2.274,-2.28,-2.2839,-2.2916,-2.2976,-2.3038,-2.3072,-2.3087,-2.3092,-2.3102,-2.3092,-2.3076,-2.3085,-2.3009,-2.3089,-2.3089,-2.3089,-2.3089,-2.3089,-2.2411,-2.2446,-2.2497,-2.2552,-2.259,-2.2633,-2.2672,-2.2708,-2.2758,-2.2822,-2.2841,-2.2903,-2.2957,-2.3043,-2.3078,-2.3128,-2.3126,-2.314,-2.3144,-2.3147,-2.3147,-2.3069,-2.314,-2.314,-2.314,-2.314,-2.314,0,-2.2467,-2.25,-2.255,-2.2613,-2.2656,-2.2665,-2.2717,-2.2752,-2.2806,-2.2854,-2.2903,-2.2972,-2.303,-2.3079,-2.314,-2.3171,-2.3179,-2.3185,-2.3183,-2.3191,-2.3146,-2.313,-2.3177,-2.3177,-2.3177,-2.3177,-2.3177,-2.3177,-2.25,-2.2561,-2.2584,-2.2665,-2.2699,-2.2759,-2.2787,-2.2828,-2.2866,-2.2941,-2.2989,-2.302,-2.3069,-2.3134,-2.3188,-2.3201,-2.3223,-2.3227,-2.3242,-2.3198,-2.3194,-2.319,-2.3176,-2.3232,-2.3232,-2.3283,-2.3283,-2.3283]},{"header":{"parameterUnit":"m.s-1","parameterCategory":1,"la1":30.2991,"la2":30.254,"lo1":-89.0895,"lo2":-89.0444,"dy":0.0017,"dx":0.0017,"nx":28,"ny":28,"refTime":"2024-03-31T09:00:00:Z","depth":0,"parameterNumber":3,"parameterNumberName":"V-component_of_WINDS"},"data":[0,0,0,0,0,0,0,0,0,0,0,0,0,0,0,0,0,0,0,0,0,0,0,0,0,0,0,0,0,0,0,0,0,0,0,0,0,0,0,0,0,0,0,0,0,0,0,0,0,0,0,0,0,0,0,0,0,0,4.79,4.7901,0,4.798,4.7981,4.7982,4.7964,4.7963,4.7961,4.796,4.8038,4.8042,4.8045,0,0,0,0,0,0,0,0,0,0,0,0,0,4.7729,4.7733,4.79,4.7901,4.7902,4.798,4.7981,4.7982,4.7964,4.7963,4.7961,4.7959,4.8037,4.8041,4.8046,0,0,0,0,0,0,0,0,0,0,0,0,0,4.7806,4.7734,4.79,4.7903,4.7904,4.7979,4.7981,4.7982,4.7965,4.7963,4.796,4.7958,4.8036,4.8041,4.8046,4.8123,0,0,4.8062,4.8064,0,0,0,0,0,0,0,0,4.7801,4.7812,4.7901,4.7903,4.7904,4.796,4.7949,4.8029,4.7965,4.7942,4.796,4.7957,4.8014,4.8021,4.804,4.8127,4.813,4.8062,4.8066,4.8068,4.8069,0,0,0,0,0,0,0,4.7796,4.7808,4.7931,4.7902,4.7904,4.7899,4.7907,4.7964,4.7989,4.7943,4.7942,4.7952,4.8014,4.8035,4.8042,4.8131,4.8062,4.8067,4.807,4.8072,4.8285,4.8288,0,0,0,0,0,0,4.779,4.7804,4.7929,4.7934,4.7846,4.7904,4.7913,4.7944,4.7988,4.7993,4.7954,4.7951,4.8028,4.8036,4.8045,4.8139,4.8068,4.8073,4.8076,4.8283,4.8286,4.8289,0,0,0,0,0,0,4.7787,4.7801,4.7926,4.7869,4.7884,4.7909,4.7944,4.7947,4.7968,4.7997,4.8,4.7972,4.8026,4.8038,4.8104,4.8142,4.8075,4.808,4.828,4.8284,4.8287,4.8328,0,0,0,0,0,0,4.7782,4.78,4.783,4.787,4.7887,4.7985,4.7946,4.795,4.7978,4.7975,4.8014,4.8018,4.8025,4.8097,4.8109,4.8148,4.8084,4.8277,4.8282,4.8286,4.8323,4.8333,4.834,0,0,0,0,0,4.7776,4.7838,4.7832,4.7847,4.7926,4.7987,4.7997,4.8005,4.7981,4.8011,4.8029,4.8017,4.8135,4.8103,4.8118,4.8158,4.8274,4.828,4.8286,4.8319,4.8331,4.834,0,0,0,0,0,0,4.7801,4.7843,4.7837,4.7914,4.7947,4.7984,4.8022,4.8016,4.8056,4.8051,4.8058,4.8067,4.8135,4.8153,4.8117,4.8235,4.8201,4.821,4.8222,4.8233,4.8241,4.8236,4.8088,0,0,0,0,0,4.7815,4.7863,4.7896,4.796,4.7977,4.7997,4.8024,4.8027,4.8061,4.8075,4.8098,4.8131,4.8176,4.8205,4.8247,4.8325,4.8334,4.836,4.8368,4.8375,4.8383,4.8427,4.844,4.8307,4.8307,4.8307,0,0,4.7846,4.7875,4.7904,4.7966,4.7992,4.8041,4.8009,4.8061,4.8097,4.8082,4.8148,4.8166,4.8203,4.8276,4.8309,4.8293,4.8422,4.8383,4.8388,4.8392,4.8435,4.8447,4.8458,4.8311,4.8311,4.831,0,0,4.7927,4.7953,4.801,4.8037,4.8078,4.809,4.8104,4.8142,4.8154,4.822,4.821,4.8252,4.8328,4.8356,4.838,4.8471,4.8462,4.8484,4.853,4.8573,4.8583,4.8593,4.8627,4.8639,4.8492,4.8492,4.8492,0,4.7959,4.8033,4.804,4.8094,4.8122,4.8112,4.817,4.8195,4.8247,4.8266,4.8247,4.8344,4.8368,4.8448,4.8471,4.849,4.8506,4.8481,4.8581,4.8591,4.86,4.8632,4.8645,4.8495,4.8494,4.8494,4.8494,0,4.8072,4.8123,4.8164,4.8216,4.8248,4.8304,4.8319,4.835,4.835,4.8365,4.8432,4.846,4.8509,4.8528,4.8528,4.8609,4.8597,4.858,4.8546,4.8615,4.8646,4.8658,4.8498,4.8497,4.8497,4.8496,0,0,4.8172,4.8228,4.8243,4.8267,4.8311,4.835,4.8405,4.8454,4.8482,4.8517,4.8564,4.8629,4.8613,4.864,4.8643,4.868,4.8753,4.8658,4.8659,4.8676,4.8845,4.886,4.8875,4.8746,4.8748,4.875,4.8843,0,4.8259,4.8357,4.8365,4.8454,4.8501,4.8492,4.854,4.8572,4.8586,4.8628,4.8643,4.8691,4.8665,4.8682,4.8718,4.8736,4.8787,4.8729,4.879,4.8792,4.8784,4.889,4.8906,4.8992,4.8855,4.8857,4.8858,0,4.8373,4.8415,4.8508,4.8547,4.8567,4.861,4.8656,4.8696,4.8731,4.8739,4.877,4.8768,4.8823,4.8786,4.8863,4.8824,4.8849,4.8861,4.8865,4.8873,4.8831,4.8903,4.902,4.9034,4.8877,4.8876,4.8874,0,4.844,4.8518,4.8585,4.8605,4.8651,4.8682,4.8702,4.8735,4.8765,4.8804,4.8823,4.8868,4.8893,4.8927,4.8937,4.8909,4.9015,4.8978,4.9024,4.9024,4.9049,4.9047,4.9173,4.9061,4.906,4.906,4.906,0,4.8538,4.8596,4.8616,4.8657,4.8722,4.873,4.8793,4.8811,4.8841,4.8886,4.8879,4.892,4.8929,4.8973,4.898,4.9044,4.9054,4.9063,4.9065,4.9065,4.9064,4.9083,4.9078,4.9064,4.9063,4.9062,4.9062,0,4.8624,4.864,4.8712,4.875,4.8761,4.8807,4.8839,4.8878,4.8891,4.8948,4.8961,4.8982,4.9033,4.9045,4.9104,4.911,4.9186,4.918,4.9175,4.9175,4.9222,4.9218,4.9366,4.9386,4.9258,4.9259,4.926,0,4.8687,4.8732,4.8774,4.8804,4.8826,4.8874,4.8904,4.8913,4.8944,4.8989,4.9023,4.9073,4.9113,4.9194,4.9214,4.926,4.9257,4.9306,4.9264,4.9264,4.9261,4.9259,4.9264,4.9314,4.9316,4.9317,4.9318,0,4.8797,4.8802,4.8847,4.8895,4.8931,4.8968,4.9004,4.9028,4.9042,4.9078,4.913,4.9162,4.9223,4.9273,4.9319,4.9339,4.9331,4.933,4.9344,4.9346,4.9342,4.9347,4.9199,4.9328,4.9327,4.9326,4.9325,4.9325,4.8875,4.8915,4.8952,4.9002,4.903,4.9063,4.9103,4.9122,4.9166,4.9218,4.9219,4.9277,4.9311,4.9372,4.9395,4.9439,4.9424,4.9443,4.9449,4.9454,4.9459,4.9333,4.9447,4.9447,4.9447,4.9446,4.9446,0,4.8987,4.901,4.9056,4.9107,4.9146,4.9135,4.9174,4.9208,4.9259,4.9292,4.9332,4.9393,4.9441,4.9465,4.9513,4.9544,4.9542,4.9556,4.9555,4.9561,4.9469,4.9453,4.9558,4.9558,4.9558,4.9557,4.9557,4.9557,4.905,4.9118,4.9128,4.921,4.9232,4.9289,4.9313,4.9344,4.937,4.9439,4.9479,4.9495,4.9524,4.9574,4.9618,4.9623,4.9642,4.966,4.9664,4.9578,4.9567,4.9556,4.9542,4.9663,4.9663,4.9752,4.9753,4.9754]}]]